User: anonymous   Login
Location: Napier
(39.4830°S, 176.9170°E)
Time: 08:12:16
(UTC+13:00)
Language:

USA 238 DEB - Orbit

View from above orbital plane
View from above orbital plane
View from above satellite
View from above satellite

Ground track
Ground track

The orbit data is extracted from the following two-line orbital elements,

1 38773U 12048P   19280.16649827 0.00000000  00000-0  00000-0 0    09
2 38773  63.4399 318.5138 0105179   0.6459 359.3540 13.40789357    06
Epoch (UTC): 07 October 2019 03:59:45
Eccentricity: 0.0105179
inclination: 63.4399°
perigee height: 1027 km
apogee height: 1185 km
right ascension of ascending node: 318.5138°
argument of perigee: 0.6459°
revolutions per day: 13.40789357
mean anomaly at epoch: 359.3540°
orbit number at epoch: 0

The dashed part of the orbit path shows where the satellite is in the earth's shadow,  

DLR